Snowfall_Accumulation
0.0 0.0 0.0 0.0 0.0 0.0 0.0 0.0 0.6 0.0 0.0 0.0 0.0 0.0 0.0 0.0 0.0 0.0 0.0 0.0 0.0 0.0 0.0 0.0 0.0 0.0 0.0 0.0 0.0 0.0 0.0 0.0 0.0 0.0 0.0 0.0 0.0 0.0 0.0 0.0 0.0 0.0 0.1 0.1
0.0 0.0 0.0 0.0 0.0 0.0 0.0 0.0 0.0 0.0 0.0 0.0 0.0 0.0 0.0 0.0 0.0 0.0 0.0 0.0 0.0 0.0 0.0 0.0 0.0 0.0 0.0 0.0 0.0 0.0 0.0 0.0 0.0 0.0 0.0 0.1 0.0 0.1 0.0 0.1 0.1 0.1 0.1 0.1
1.1 0.0 0.0 2.7 0.0 0.0 0.1 0.0 0.0 0.1 0.0 0.0 0.0 0.0 0.0 0.0 0.0 0.0 0.0 0.0 0.0 0.0 0.0 0.0 0.0 0.0 0.0 0.0 0.0 0.0 0.0 0.0 0.0 0.0 0.0 0.1 0.0 0.0 0.1 0.1 0.1 0.2 0.2 0.1
4.2 0.4 13.8 0.1 0.0 0.0 0.0 0.0 0.0 0.0 0.0 0.0 0.0 0.0 0.0 0.0 0.0 0.0 0.0 0.0 0.0 0.0 0.0 0.0 0.0 0.0 0.0 0.0 0.0 0.0 0.0 0.0 0.0 0.0 0.0 0.0 0.0 0.0 0.1 0.1 0.2 0.3 0.4 0.5
8.0 1.1 0.0 0.0 0.0 0.0 0.0 0.1 0.0 0.0 0.0 0.0 0.0 0.0 0.0 0.0 0.0 0.0 0.0 0.0 0.0 0.0 0.0 0.0 0.0 0.0 0.0 0.0 0.0 0.0 0.1 0.1 0.1 0.1 0.1 0.1 0.1 0.1 0.1 0.3 0.4 0.4 0.4 0.7
3.5 3.2 3.1 0.0 0.0 0.0 0.0 0.4 0.0 0.0 0.0 0.0 0.0 0.0 0.0 0.0 0.0 0.0 0.0 0.0 0.0 0.0 0.0 0.0 0.0 0.0 0.0 0.0 0.0 0.1 0.1 0.1 0.1 0.1 0.2 0.4 0.2 0.2 0.2 0.2 0.4 0.6 0.6 0.7
1.6 2.4 0.5 0.0 0.0 0.0 0.8 0.1 0.0 0.0 0.0 0.0 0.3 0.0 0.0 0.0 0.0 0.0 0.0 0.0 0.0 0.0 0.0 0.0 0.0 0.0 0.0 0.0 0.0 0.0 0.1 0.2 0.3 0.4 0.3 0.2 0.3 0.3 0.3 0.5 0.5 0.6 0.6 0.7
2.8 5.8 6.6 0.0 0.0 0.1 0.1 0.0 0.0 0.0 0.0 0.0 0.0 0.0 0.0 0.0 0.0 0.0 0.0 0.0 0.0 0.0 0.0 0.0 0.0 0.0 0.0 0.0 0.0 0.1 0.1 0.2 0.3 0.3 0.3 0.3 0.4 0.6 0.7 0.6 0.5 0.7 0.4 1.5
1.2 2.7 0.0 0.0 0.0 0.0 0.0 0.0 0.0 0.0 0.0 0.0 0.0 0.0 0.0 0.0 0.0 0.0 0.0 0.0 0.0 0.0 0.0 0.0 0.0 0.0 0.0 0.0 0.0 0.1 0.2 0.4 0.4 0.3 0.4 0.4 0.6 0.7 1.1 0.5 1.2 1.0 1.8 2.3
0.3 0.0 0.0 0.0 0.0 0.0 0.0 0.0 0.0 0.0 0.0 0.0 0.0 0.0 0.0 0.0 0.0 0.0 0.0 0.0 0.0 0.0 0.0 0.0 0.0 0.0 0.0 0.0 0.0 0.1 0.2 0.4 0.5 0.5 0.8 0.8 1.3 1.3 1.5 1.9 2.0 2.8 3.5 5.6
0.1 0.0 0.0 0.0 0.0 0.0 0.0 0.0 0.0 0.0 0.0 0.0 0.0 0.0 0.0 0.0 0.0 0.0 0.0 0.0 0.0 0.0 0.0 0.0 0.0 0.0 0.0 0.0 0.0 0.1 0.1 0.3 0.6 0.7 0.5 0.7 0.8 1.7 1.9 2.4 3.9 5.5 6.4 6.1
0.9 0.0 0.0 0.0 0.0 0.0 0.0 0.0 0.0 0.0 0.0 0.0 0.0 0.0 0.0 0.0 0.0 0.0 0.0 0.0 0.0 0.0 0.0 0.0 0.0 0.0 0.0 0.0 0.0 0.0 0.2 0.5 0.6 0.7 1.2 1.6 1.5 3.5 nan nan nan nan nan 5.5
0.1 0.0 0.0 0.0 0.0 0.0 0.0 0.0 0.0 0.0 0.0 0.0 0.0 0.0 0.0 0.0 0.0 nan 0.0 0.0 0.0 0.0 0.0 0.0 0.0 0.0 0.0 0.0 0.0 0.1 0.1 0.2 0.7 0.6 0.8 1.1 1.6 2.2 6.6 9.1 nan nan nan nan
0.0 0.0 0.1 0.0 0.3 0.0 0.0 0.0 0.0 0.0 0.0 0.0 0.0 0.0 0.0 0.0 0.0 0.1 0.9 0.9 1.2 0.5 1.3 0.6 0.3 0.8 0.2 0.1 0.1 0.2 0.1 0.0 1.2 2.0 2.1 2.6 2.8 3.5 3.1 4.1 7.0 8.5 nan nan
0.0 0.0 0.0 0.0 0.0 0.0 0.0 0.0 0.0 0.0 0.0 0.0 0.0 0.0 0.0 0.0 0.0 0.0 0.1 2.2 3.6 5.1 5.8 4.8 4.4 5.5 3.7 3.2 2.8 2.5 1.0 2.4 2.2 2.3 2.4 2.2 2.2 2.3 2.3 2.7 3.2 3.9 3.4 2.2
0.0 0.0 0.0 0.0 0.0 0.0 0.0 0.0 0.0 0.0 0.0 0.0 0.0 0.0 0.0 0.0 0.0 0.0 0.0 0.1 0.4 1.0 3.3 6.4 5.3 5.9 4.7 3.2 3.0 1.9 1.8 0.1 0.8 1.2 1.4 1.6 1.8 2.0 1.8 1.6 1.6 1.8 2.3 2.9
0.1 0.1 0.1 0.1 0.0 0.0 0.0 0.0 0.0 0.0 0.0 0.0 0.0 0.0 0.0 0.0 0.0 0.1 0.2 0.7 2.0 3.1 3.3 3.0 4.6 3.7 3.3 1.5 0.5 1.3 1.1 1.0 0.0 0.8 0.9 0.9 1.1 1.3 1.2 2.0 2.3 2.1 3.9 5.5
0.0 0.0 0.0 0.0 0.0 0.0 0.0 0.0 0.0 0.0 0.0 0.0 0.2 2.4 4.5 4.4 2.0 4.2 4.8 4.2 4.6 5.0 2.3 1.7 1.2 1.1 1.0 0.3 0.6 1.0 1.3 1.2 0.7 0.9 0.8 1.6 1.1 0.8 1.3 1.5 1.3 1.7 2.4 2.3
0.0 0.0 0.0 0.0 0.0 0.0 0.0 0.0 0.0 0.1 2.3 2.1 3.8 3.5 3.4 4.2 1.5 1.3 2.0 5.9 6.3 1.4 1.5 0.3 0.0 0.1 0.2 0.2 0.2 1.3 1.5 1.8 1.6 1.5 1.1 4.2 2.9 1.1 2.2 3.1 2.7 3.5 1.8 3.2
0.0 0.0 0.0 0.0 0.0 0.0 0.1 0.1 0.4 0.4 0.4 0.7 4.1 5.6 4.3 6.5 5.6 6.3 3.3 3.1 0.9 1.7 0.3 0.3 0.3 0.3 0.4 0.3 0.6 0.9 1.7 2.8 1.6 2.6 3.9 2.1 4.7 7.8 4.6 5.8 2.6 4.1 9.4 7.8
0.1 0.0 0.1 0.1 0.2 0.5 1.9 2.1 1.1 0.3 0.9 3.8 5.0 6.4 5.9 5.2 5.7 7.1 4.2 1.9 0.5 0.5 0.3 0.1 0.4 0.7 0.5 1.0 1.5 2.2 3.6 5.7 6.1 3.6 3.9 7.7 10.2 6.5 7.5 8.5 7.6 9.8 13.0 10.2
0.5 1.7 2.8 2.0 1.0 2.0 1.9 1.1 0.4 3.5 3.6 6.6 9.8 10.8 8.8 4.6 5.5 4.7 5.3 1.9 2.1 1.7 1.4 1.3 1.0 2.4 2.0 4.3 1.9 4.8 2.9 3.2 4.6 5.0 5.4 7.5 7.9 12.6 13.2 11.6 12.5 14.0 13.3 14.3
1.0 0.9 2.6 4.8 4.8 3.3 3.8 4.5 6.8 6.0 8.7 7.9 9.0 6.1 4.1 3.2 2.9 4.2 4.1 0.6 1.1 2.7 1.2 1.9 3.8 4.6 5.4 5.8 5.2 6.5 6.8 6.9 6.7 6.0 6.8 11.0 10.0 17.3 9.9 10.1 11.4 11.5 16.8 11.6
2.2 2.2 2.8 2.1 2.5 2.0 4.0 5.0 3.8 4.3 8.7 6.1 7.0 9.0 3.9 7.0 7.7 2.0 1.5 4.6 4.7 11.3 7.5 4.5 7.1 5.7 6.0 8.0 8.5 9.5 8.2 9.0 9.1 10.2 5.2 7.6 16.2 12.6 9.6 15.5 9.7 12.0 13.4 11.7
2.2 2.7 2.3 2.1 1.5 1.9 1.1 1.6 2.7 3.5 3.1 2.1 2.7 2.1 1.2 2.2 5.0 3.4 4.3 4.3 5.6 3.5 5.0 4.8 5.0 6.8 11.1 11.2 10.4 10.6 10.8 8.7 10.0 11.9 9.1 14.0 12.7 19.1 16.2 12.6 16.1 16.0 16.7 14.3
1.3 1.9 1.6 1.0 0.7 1.1 1.3 1.5 2.0 2.8 2.5 6.2 4.0 9.0 6.7 3.9 3.5 3.5 4.9 5.8 3.5 5.1 3.7 10.3 13.7 13.6 11.8 8.8 10.0 10.4 7.6 5.0 7.3 7.3 9.8 10.0 10.3 8.4 10.9 10.1 14.4 17.9 22.3 24.5
1.8 0.4 1.4 1.5 1.4 1.4 1.5 1.7 3.0 4.2 3.7 6.6 7.1 5.9 3.5 5.9 7.6 5.2 7.1 9.0 8.8 10.2 10.7 12.2 10.2 7.9 5.9 9.5 8.3 7.2 6.9 7.2 8.1 5.8 11.5 14.6 14.0 19.5 18.5 18.5 21.0 22.6 20.9 20.0
Water_Equivalent
0.00 0.00 0.00 0.00 0.00 0.00 0.00 0.00 0.11 0.00 0.00 0.00 0.00 0.00 0.00 0.00 0.00 0.00 0.00 0.00 0.00 0.00 0.00 0.00 0.00 0.00 0.00 0.00 0.00 0.00 0.00 0.00 0.00 0.00 0.00 0.00 0.00 0.00 0.00 0.00 0.01 0.01 0.02 0.02
0.00 0.00 0.00 0.00 0.00 0.00 0.00 0.00 0.00 0.00 0.00 0.00 0.00 0.00 0.00 0.00 0.00 0.00 0.00 0.00 0.00 0.00 0.00 0.00 0.00 0.00 0.00 0.00 0.00 0.00 0.00 0.00 0.00 0.01 0.01 0.01 0.01 0.01 0.01 0.01 0.02 0.02 0.03 0.02
0.17 0.00 0.01 0.40 0.00 0.00 0.03 0.00 0.00 0.03 0.00 0.00 0.00 0.00 0.00 0.00 0.00 0.00 0.00 0.00 0.00 0.00 0.00 0.00 0.00 0.00 0.00 0.00 0.00 0.00 0.00 0.00 0.01 0.01 0.01 0.01 0.01 0.01 0.01 0.03 0.03 0.04 0.05 0.03
0.65 0.07 1.53 0.03 0.00 0.00 0.00 0.00 0.00 0.00 0.00 0.00 0.00 0.00 0.00 0.00 0.00 0.00 0.00 0.00 0.00 0.00 0.00 0.00 0.00 0.00 0.00 0.00 0.00 0.00 0.00 0.00 0.00 0.01 0.01 0.01 0.01 0.01 0.02 0.03 0.05 0.09 0.10 0.13
1.05 0.19 0.00 0.00 0.00 0.00 0.00 0.02 0.00 0.00 0.00 0.00 0.00 0.00 0.00 0.00 0.00 0.00 0.00 0.00 0.00 0.00 0.00 0.00 0.00 0.00 0.00 0.00 0.00 0.01 0.02 0.02 0.02 0.02 0.03 0.03 0.03 0.03 0.04 0.07 0.09 0.08 0.07 0.13
0.54 0.39 0.47 0.00 0.00 0.00 0.00 0.08 0.00 0.00 0.00 0.00 0.00 0.01 0.00 0.00 0.00 0.00 0.00 0.00 0.00 0.00 0.00 0.00 0.00 0.00 0.00 0.00 0.01 0.01 0.02 0.02 0.02 0.04 0.06 0.10 0.06 0.05 0.04 0.06 0.09 0.11 0.10 0.12
0.26 0.35 0.09 0.00 0.00 0.00 0.15 0.02 0.00 0.00 0.00 0.00 0.11 0.01 0.00 0.00 0.00 0.00 0.00 0.00 0.00 0.00 0.00 0.00 0.00 0.00 0.00 0.00 0.01 0.01 0.02 0.05 0.09 0.12 0.09 0.05 0.07 0.07 0.07 0.10 0.10 0.11 0.09 0.11
0.46 0.77 0.71 0.00 0.00 0.01 0.02 0.00 0.00 0.00 0.00 0.00 0.00 0.00 0.00 0.00 0.00 0.00 0.00 0.00 0.00 0.00 0.00 0.00 0.00 0.00 0.01 0.01 0.01 0.02 0.03 0.05 0.08 0.09 0.08 0.08 0.11 0.14 0.15 0.10 0.08 0.11 0.07 0.34
0.19 0.47 0.00 0.00 0.00 0.00 0.00 0.00 0.00 0.00 0.00 0.00 0.00 0.00 0.00 0.00 0.00 0.00 0.00 0.00 0.00 0.00 0.00 0.00 0.00 0.00 0.00 0.01 0.01 0.03 0.06 0.12 0.11 0.08 0.10 0.09 0.14 0.13 0.22 0.09 0.25 0.21 0.39 0.47
0.07 0.01 0.00 0.00 0.00 0.00 0.00 0.00 0.00 0.00 0.00 0.00 0.00 0.00 0.00 0.00 0.00 0.00 0.00 0.00 0.00 0.00 0.00 0.00 0.00 0.00 0.00 0.00 0.01 0.02 0.06 0.09 0.12 0.13 0.19 0.17 0.31 0.29 0.31 0.40 0.46 0.61 0.72 1.07
0.02 0.00 0.00 0.00 0.00 0.00 0.00 0.00 0.00 0.00 0.00 0.00 0.00 0.00 0.00 0.00 0.00 0.00 0.00 0.00 0.00 0.00 0.00 0.00 0.00 0.00 0.00 0.00 0.01 0.02 0.03 0.07 0.12 0.16 0.11 0.14 0.17 0.40 0.44 0.51 0.83 1.13 1.33 1.32
0.27 0.00 0.00 0.00 0.00 0.00 0.00 0.00 0.00 0.00 0.00 0.00 0.00 0.00 0.00 0.00 0.00 0.00 0.00 0.00 0.00 0.00 0.00 0.00 0.00 0.00 0.00 0.01 0.00 0.01 0.03 0.10 0.15 0.15 0.26 0.31 0.29 0.74 nan nan nan nan nan 1.31
0.05 0.00 0.00 0.00 0.00 0.00 0.00 0.00 0.00 0.00 0.00 0.00 0.00 0.00 0.00 0.00 0.00 nan 0.00 0.00 0.00 0.00 0.00 0.01 0.01 0.01 0.00 0.00 0.00 0.02 0.03 0.04 0.18 0.16 0.19 0.26 0.35 0.51 1.16 1.81 nan nan nan nan
0.00 0.00 0.05 0.00 0.10 0.00 0.00 0.00 0.00 0.00 0.00 0.00 0.00 0.00 0.00 0.00 0.00 0.05 0.25 0.31 0.36 0.13 0.33 0.16 0.07 0.18 0.07 0.02 0.03 0.06 0.03 0.00 0.37 0.53 0.53 0.62 0.66 0.80 0.69 0.80 1.26 1.45 nan nan
0.00 0.00 0.00 0.00 0.00 0.00 0.00 0.00 0.00 0.00 0.00 0.00 0.00 0.00 0.00 0.00 0.00 0.00 0.03 0.60 1.03 1.49 1.68 1.33 1.23 1.54 1.19 1.13 0.93 0.76 0.33 0.68 0.62 0.65 0.66 0.58 0.55 0.53 0.52 0.59 0.63 0.71 0.61 0.48
0.00 0.00 0.00 0.00 0.00 0.00 0.00 0.00 0.00 0.00 0.00 0.00 0.00 0.00 0.00 0.00 0.00 0.00 0.00 0.01 0.10 0.25 0.77 1.68 1.42 1.69 1.35 1.01 0.95 0.54 0.52 0.02 0.20 0.32 0.37 0.41 0.44 0.45 0.39 0.36 0.34 0.37 0.42 0.50
0.02 0.03 0.02 0.02 0.00 0.00 0.00 0.00 0.00 0.00 0.00 0.00 0.00 0.00 0.00 0.00 0.00 0.01 0.03 0.16 0.45 0.71 0.80 0.73 1.17 0.94 0.85 0.43 0.13 0.37 0.30 0.25 0.00 0.19 0.23 0.22 0.27 0.32 0.28 0.41 0.47 0.41 0.77 1.17
0.00 0.00 0.00 0.00 0.00 0.00 0.00 0.00 0.00 0.00 0.00 0.00 0.05 0.58 1.04 0.93 0.36 0.79 0.97 0.93 1.11 1.20 0.57 0.40 0.26 0.22 0.20 0.06 0.12 0.24 0.29 0.26 0.19 0.23 0.22 0.38 0.26 0.20 0.31 0.33 0.29 0.36 0.51 0.50
0.00 0.00 0.00 0.00 0.00 0.00 0.00 0.00 0.00 0.02 0.55 0.49 0.90 0.78 0.74 0.87 0.26 0.23 0.35 1.18 1.30 0.25 0.28 0.05 0.00 0.03 0.05 0.05 0.07 0.32 0.38 0.45 0.36 0.30 0.25 1.35 0.67 0.26 0.48 0.68 0.58 0.79 0.41 0.61
0.00 0.00 0.00 0.00 0.00 0.01 0.04 0.03 0.10 0.08 0.07 0.14 0.92 1.21 0.86 1.35 1.15 1.27 0.64 0.55 0.18 0.35 0.05 0.06 0.06 0.06 0.08 0.07 0.19 0.22 0.41 0.75 0.39 0.64 0.89 0.46 1.07 1.78 1.01 1.87 0.57 0.90 2.07 1.58
0.02 0.01 0.02 0.03 0.06 0.15 0.49 0.52 0.23 0.05 0.17 0.79 1.09 1.35 1.25 1.03 1.19 1.54 0.84 0.37 0.08 0.09 0.05 0.02 0.09 0.16 0.14 0.23 0.33 0.52 0.93 1.48 1.48 0.83 0.87 1.84 2.42 1.51 1.71 2.00 1.76 2.25 2.75 2.07
0.14 0.48 0.76 0.46 0.19 0.35 0.36 0.20 0.07 0.64 0.66 1.26 2.04 2.30 1.74 0.73 1.05 0.93 1.13 0.36 0.39 0.57 0.30 0.28 0.22 0.79 0.62 1.41 0.42 1.23 0.66 0.77 1.07 1.14 1.19 1.77 1.84 2.85 2.88 2.47 2.42 2.84 2.83 2.97
0.24 0.20 0.54 0.93 0.94 0.59 0.67 0.71 1.29 1.13 1.71 1.58 1.83 1.22 0.80 0.60 0.55 0.79 0.73 0.11 0.22 0.83 0.24 0.44 1.21 1.51 1.78 1.65 1.43 1.74 1.75 1.73 1.64 1.41 1.54 2.51 2.25 3.80 1.92 1.92 2.23 2.28 3.38 2.21
0.41 0.41 0.49 0.41 0.45 0.33 0.60 0.73 0.56 0.63 1.54 0.98 1.23 1.70 0.67 1.34 1.72 0.39 0.31 1.53 1.54 3.35 2.13 1.13 2.02 1.89 1.99 2.12 2.12 2.42 2.07 2.23 2.13 2.37 1.10 2.45 3.66 2.56 1.92 3.00 1.70 2.24 2.51 2.16
0.37 0.45 0.39 0.36 0.25 0.38 0.19 0.26 0.37 0.46 0.40 0.32 0.39 0.33 0.21 0.43 1.17 0.72 1.03 1.00 1.77 0.99 1.24 1.53 1.63 2.24 2.73 2.79 2.52 2.49 2.45 1.96 2.19 2.61 1.80 2.93 2.64 3.97 3.30 2.35 2.81 2.99 2.97 2.59
0.24 0.40 0.35 0.19 0.15 0.24 0.26 0.30 0.37 0.49 0.47 1.15 0.70 2.06 1.53 0.87 0.78 0.75 1.07 1.62 0.75 1.60 0.86 2.43 3.27 3.26 2.90 1.98 2.29 2.33 1.61 1.07 1.54 1.51 1.95 1.94 1.93 1.53 1.91 1.74 2.57 3.36 4.27 4.78
0.40 0.09 0.31 0.32 0.30 0.29 0.30 0.34 0.61 0.79 0.93 1.51 1.41 1.32 0.81 1.33 1.72 1.33 2.12 2.05 1.99 2.30 2.38 2.93 2.41 2.30 1.30 2.18 1.79 1.53 1.40 1.49 2.42 1.08 2.21 2.70 2.55 3.67 3.26 3.31 3.90 4.38 3.73 3.24
SL_Ratio
nan nan nan nan nan nan 3.3 0.0 5.1 6.0 nan nan nan nan nan nan nan nan nan nan nan nan nan nan nan nan nan nan nan nan nan nan nan nan nan 3.3 3.6 nan nan 3.3 3.3 4.0 4.1 4.1
6.0 nan nan nan nan nan nan nan nan nan nan nan nan nan nan nan nan nan nan nan nan nan nan nan nan nan nan nan nan nan nan nan nan 3.6 3.4 3.6 3.6 3.7 3.9 3.8 3.9 3.7 4.1 4.4
6.8 nan 5.6 6.8 nan nan 2.5 nan nan 3.5 nan nan nan nan nan nan nan nan nan nan nan nan nan nan nan nan nan nan nan nan nan 3.3 3.3 3.5 3.5 3.6 3.6 4.0 3.7 3.7 3.8 4.2 4.4 4.5
6.5 5.5 9.0 4.6 nan nan nan nan nan nan nan nan nan nan nan nan nan nan nan nan nan nan nan nan nan nan nan nan nan nan nan 10.0 3.8 3.5 3.7 3.8 3.8 3.5 3.8 4.0 3.8 3.9 3.9 3.9
7.6 5.9 0.0 nan nan nan 4.3 5.0 nan nan nan nan nan nan nan nan nan nan nan nan nan nan nan nan nan nan nan nan 3.3 3.1 3.5 3.6 3.5 3.5 3.6 3.6 3.8 3.9 3.9 4.0 4.5 4.9 5.0 5.5
6.4 8.3 6.6 nan nan nan nan 4.7 nan nan nan nan nan 4.1 nan nan nan nan nan nan nan nan nan nan nan nan nan 2.5 3.1 3.4 3.5 3.5 3.4 3.4 3.6 3.8 3.9 3.9 3.9 4.1 5.0 5.3 5.8 5.8
6.2 6.8 5.4 nan nan nan 5.4 4.9 nan nan nan nan 2.7 2.3 nan nan nan nan nan nan nan nan nan nan nan nan nan 2.9 3.7 3.4 3.6 3.6 3.4 3.5 3.5 3.6 3.7 3.8 4.1 5.3 5.4 5.7 6.0 6.1
6.0 7.5 9.3 nan nan 6.5 4.9 nan nan nan nan nan nan nan nan nan nan nan nan nan nan nan nan nan nan nan 3.3 3.5 3.4 3.5 3.4 3.2 3.2 3.5 3.5 3.6 3.7 4.1 4.8 5.6 6.1 6.2 6.0 4.5
6.4 5.8 4.4 nan nan nan nan nan nan nan nan nan nan nan 0.0 nan nan nan nan nan nan nan nan nan nan nan 2.9 3.3 3.4 3.6 3.3 3.2 3.3 3.4 3.6 3.8 4.4 5.0 5.0 5.8 4.6 4.7 4.6 4.9
5.1 5.3 nan nan nan nan nan nan nan nan nan nan nan nan nan nan nan nan nan nan nan nan nan nan nan nan nan 3.8 3.6 3.9 3.8 3.8 3.8 4.2 4.3 4.4 4.3 4.6 4.8 4.8 4.3 4.6 4.9 5.2
5.7 5.0 nan nan nan nan nan nan nan nan nan nan nan nan nan nan nan nan nan nan nan nan nan nan nan 3.3 5.0 4.4 3.7 4.1 4.1 4.3 4.7 4.4 4.9 5.2 4.6 4.2 4.3 4.7 4.6 4.8 4.8 4.6
3.5 nan nan nan nan nan nan nan nan nan nan nan nan nan nan nan nan nan nan nan nan nan nan nan nan 3.8 3.6 3.8 5.0 4.0 4.9 4.6 4.1 4.4 4.8 5.2 5.0 4.8 nan nan nan nan nan 4.2
2.5 nan nan nan nan nan nan nan nan nan nan nan nan nan nan nan nan nan nan nan nan 5.0 3.8 4.0 4.1 3.7 3.3 3.3 2.9 4.3 4.9 5.2 4.0 4.1 4.0 4.2 4.4 4.4 5.7 5.0 nan nan nan nan
nan nan 2.8 nan 2.5 nan nan nan nan nan nan nan nan nan nan nan 3.3 3.1 3.6 3.1 3.3 3.9 3.9 4.0 4.1 4.3 3.2 2.8 3.0 3.5 3.3 nan 3.4 3.8 4.0 4.2 4.2 4.4 4.4 5.1 5.6 5.8 nan nan
nan nan nan nan nan nan nan nan nan nan nan nan nan nan nan nan nan 3.3 3.7 3.7 3.5 3.4 3.4 3.6 3.5 3.6 3.1 2.9 3.0 3.3 3.2 3.5 3.6 3.6 3.7 3.8 4.0 4.3 4.4 4.7 5.0 5.5 5.6 4.6
nan nan nan nan nan nan nan nan nan nan nan nan nan nan nan nan nan nan 3.3 4.2 3.8 4.2 4.3 3.8 3.8 3.5 3.4 3.2 3.2 3.5 3.5 3.8 3.8 3.7 3.9 4.0 4.1 4.3 4.5 4.5 4.8 4.9 5.6 5.8
4.7 4.7 4.2 4.4 nan nan nan nan nan nan nan nan nan nan nan 0.0 4.7 4.2 4.7 4.3 4.4 4.3 4.2 4.2 3.9 3.9 3.9 3.6 3.6 3.5 3.8 4.1 nan 4.0 4.0 3.9 3.9 4.1 4.3 4.8 5.0 5.1 5.1 4.7
nan nan nan nan nan nan nan nan nan nan nan nan 4.0 4.1 4.3 4.7 5.5 5.3 5.0 4.5 4.1 4.2 4.1 4.2 4.4 4.8 4.7 4.2 4.6 4.0 4.5 4.5 3.9 3.8 3.9 4.1 4.2 3.9 4.3 4.5 4.5 4.6 4.7 4.7
nan nan nan nan nan nan nan 4.2 3.3 3.7 4.2 4.2 4.2 4.4 4.6 4.8 5.5 5.7 5.6 5.0 4.8 5.6 5.5 4.9 nan 4.4 4.5 4.3 3.6 4.2 4.0 3.9 4.6 5.0 4.4 3.1 4.3 4.0 4.6 4.6 4.6 4.5 4.4 5.2
nan nan nan nan nan 3.2 3.9 3.9 4.1 4.9 4.8 4.8 4.5 4.6 5.0 4.8 4.9 4.9 5.1 5.7 5.2 4.8 5.2 5.1 5.2 5.0 4.8 4.7 3.2 4.2 4.1 3.8 4.2 4.0 4.3 4.6 4.4 4.4 4.5 3.1 4.6 4.5 4.5 4.9
2.8 3.0 3.3 3.8 4.1 3.7 3.8 4.1 4.7 5.5 5.4 4.8 4.6 4.7 4.7 5.0 4.8 4.6 5.0 5.2 5.7 5.3 5.1 3.9 4.5 4.3 3.9 4.5 4.4 4.2 3.9 3.9 4.1 4.3 4.5 4.2 4.2 4.3 4.4 4.3 4.3 4.4 4.7 4.9
3.6 3.5 3.7 4.3 5.2 5.7 5.3 5.4 5.4 5.5 5.5 5.2 4.8 4.7 5.1 6.4 5.3 5.1 4.7 5.3 5.4 3.0 4.7 4.7 4.6 3.1 3.3 3.1 4.6 3.9 4.3 4.2 4.3 4.4 4.5 4.2 4.3 4.4 4.6 4.7 5.2 4.9 4.7 4.8
4.2 4.7 4.7 5.2 5.1 5.7 5.7 6.3 5.3 5.3 5.1 5.0 4.9 5.0 5.1 5.4 5.3 5.3 5.6 5.7 5.0 3.2 4.8 4.3 3.1 3.0 3.0 3.5 3.6 3.8 3.9 4.0 4.1 4.3 4.4 4.4 4.5 4.5 5.2 5.2 5.1 5.1 5.0 5.3
5.2 5.4 5.8 5.2 5.6 6.2 6.6 6.9 6.7 6.7 5.6 6.2 5.7 5.3 5.8 5.2 4.5 5.2 4.9 3.0 3.0 3.4 3.5 4.0 3.5 3.0 3.0 3.8 4.0 3.9 3.9 4.0 4.2 4.3 4.8 3.1 4.4 4.9 5.0 5.2 5.7 5.4 5.3 5.4
6.0 6.0 5.9 6.0 6.1 4.9 6.0 6.3 7.2 7.7 7.9 6.5 6.9 6.4 5.8 5.0 4.3 4.8 4.2 4.3 3.2 3.5 4.1 3.2 3.0 3.0 4.1 4.0 4.1 4.3 4.4 4.5 4.5 4.6 5.0 4.8 4.8 4.8 4.9 5.3 5.7 5.4 5.6 5.5
5.3 4.8 4.6 5.3 4.7 4.7 4.9 5.0 5.4 5.7 5.3 5.4 5.6 4.4 4.4 4.4 4.5 4.7 4.6 3.6 4.7 3.2 4.3 4.2 4.2 4.2 4.1 4.4 4.4 4.5 4.7 4.7 4.7 4.8 5.0 5.1 5.3 5.5 5.7 5.8 5.6 5.3 5.2 5.1
4.6 4.4 4.5 4.5 4.8 4.8 5.0 5.0 5.0 5.3 3.9 4.4 5.0 4.5 4.3 4.5 4.4 3.9 3.4 4.4 4.4 4.4 4.5 4.2 4.2 3.4 4.5 4.4 4.7 4.7 4.9 4.9 3.4 5.4 5.2 5.4 5.5 5.3 5.7 5.6 5.4 5.2 5.6 6.2